Weather History for KGPI - April, 2013

Change the Weather History Date:

Sunday, April 28, 2013

  Actual Average Record
Temperature  
Mean Temperature 54 °F 47 °F  
Max Temperature 61 °F 60 °F 82 °F (1987)
Min Temperature 46 °F 33 °F 11 °F (1907)
Degree Days  
Heating Degree Days 11 18  
Month to date heating degree days 671 604  
Since 1 July heating degree days 6851 7375  
Cooling Degree Days 0 0  
Month to date cooling degree days 0 0  
Year to date cooling degree days 0 0  
Growing Degree Days 3 (Base 50)    
Moisture  
Dew Point 33 °F    
Average Humidity 52    
Maximum Humidity 71    
Minimum Humidity 33    
Precipitation  
Precipitation T in 0.04 in 0.82 in (1990)
Month to date precipitation 1.36 1.15  
Year to date precipitation 3.31 4.54  
Snow  
Snow 0.00 in - - ()
Month to date snowfall 0.9  
Year to date snowfall 9.2  
Since 1 July snowfall 18.0  
Snow Depth 0.00 in    
Sea Level Pressure  
Sea Level Pressure 29.92 in    
Wind  
Wind Speed 10 mph (SSW)    
Max Wind Speed 24 mph    
Max Gust Speed 32 mph    
Visibility 10 miles    
Events      
T = Trace of Precipitation, MM = Missing Value Source: NWS Daily Summary

Daily Weather History Graph

Daily Weather History Graph

Search for Another Location

Airport or City:

Trip Planner

Search our weather history database for the weather conditions in past years. The results will help you decide how hot, cold, wet, or windy it might be!

Date:

Astronomy

Apr. 28, 2013 Rise Set
Actual Time 6:22 AM MDT 8:47 PM MDT
Civil Twilight 5:48 AM MDT 9:22 PM MDT
Nautical Twilight 5:04 AM MDT 10:05 PM MDT
Astronomical Twilight 4:14 AM MDT 10:55 PM MDT
Moon No Moon Rise 8:34 AM MDT (4/28)
Length of Visible Light 15h 33m
Length of Day
14h 24m
Waning Gibbous, 88% of the Moon is Illuminated
Apr 28
Waning Gibbous
May 2
Last Quarter
May 9
New
May 17
First Quarter
May 24
Full

Hourly Weather History & Observations

Time (MDT) Temp. Windchill Dew Point Humidity Pressure Visibility Wind Dir Wind Speed Gust Speed Precip Events Conditions
12:55 AM 50.0 °F - 37.0 °F 61% 29.96 in 10.0 mi SSE 12.7 mph - N/A   Overcast
1:55 AM 48.0 °F - 37.0 °F 66% 29.95 in 10.0 mi SSE 9.2 mph - N/A   Mostly Cloudy
2:55 AM 48.9 °F - 37.0 °F 64% 29.95 in 10.0 mi SSE 8.1 mph - N/A   Overcast
3:55 AM 50.0 °F - 37.0 °F 61% 29.96 in 10.0 mi SE 8.1 mph - N/A   Overcast
4:55 AM 46.9 °F - 35.1 °F 63% 29.98 in 10.0 mi SSW 6.9 mph - N/A   Mostly Cloudy
5:55 AM 46.9 °F - 37.0 °F 68% 29.99 in 10.0 mi SSE 3.5 mph - N/A   Overcast
6:55 AM 46.4 °F 43.5 °F 37.4 °F 71% 29.99 in 10.0 mi South 5.8 mph - N/A   Overcast
7:55 AM 51.1 °F - 37.0 °F 59% 29.98 in 10.0 mi SSW 4.6 mph - N/A   Mostly Cloudy
8:55 AM 54.0 °F - 36.0 °F 51% 29.98 in 10.0 mi Variable 4.6 mph - N/A   Clear
9:55 AM 55.9 °F - 36.0 °F 47% 29.97 in 10.0 mi SW 11.5 mph - N/A   Mostly Cloudy
10:55 AM 57.0 °F - 34.0 °F 42% 29.96 in 10.0 mi WSW 11.5 mph - N/A   Mostly Cloudy
11:55 AM 59.0 °F - 34.0 °F 39% 29.96 in 10.0 mi SW 15.0 mph 21.9 mph N/A   Overcast
12:55 PM 57.9 °F - 32.0 °F 37% 29.96 in 10.0 mi SW 16.1 mph 26.5 mph N/A   Mostly Cloudy
1:55 PM 60.1 °F - 33.1 °F 36% 29.94 in 10.0 mi WSW 16.1 mph 26.5 mph N/A   Mostly Cloudy
2:55 PM 57.9 °F - 32.0 °F 37% 29.93 in 10.0 mi WSW 8.1 mph - N/A   Overcast
3:55 PM 57.0 °F - 32.0 °F 39% 29.92 in 10.0 mi West 11.5 mph 20.7 mph 0.00 in   Overcast
4:55 PM 57.0 °F - 28.9 °F 34% 29.90 in 10.0 mi WSW 16.1 mph 25.3 mph N/A   Overcast
5:55 PM 57.9 °F - 28.0 °F 32% 29.88 in 10.0 mi WSW 18.4 mph 32.2 mph N/A   Mostly Cloudy
6:55 PM 55.0 °F - 28.0 °F 35% 29.88 in 10.0 mi WSW 11.5 mph 21.9 mph N/A   Mostly Cloudy
7:55 PM 53.1 °F - 28.9 °F 40% 29.87 in 10.0 mi WSW 10.4 mph 18.4 mph N/A   Overcast
8:55 PM 51.1 °F - 30.9 °F 46% 29.86 in 10.0 mi SSW 10.4 mph - N/A   Overcast
9:55 PM 50.0 °F - 30.9 °F 48% 29.84 in 10.0 mi SSW 9.2 mph - 0.00 in   Mostly Cloudy
10:55 PM 50.0 °F - 30.0 °F 46% 29.80 in 10.0 mi SSW 8.1 mph - N/A   Overcast
11:55 PM 50.0 °F - 33.1 °F 52% 29.76 in 10.0 mi South 11.5 mph - N/A   Overcast